Miscellaneous Local Product
Issued by NWS Hastings, NE

Home | Current Version | Previous Version | Text Only | Print | Product List | Glossary Off
Versions: 1 2 3 4 5 6 7 8 9 10 11 12 13 14 15 16 17 18 19 20 21 22 23 24 25 26 27 28 29 30 31 32 33 34 35 36 37 38 39 40 41 42 43 44 45 46 47 48 49 50

405
AXUS43 KGID 270002
MISGRI

GID CWA HOURLY WEATHER ROUNDUP
NATIONAL WEATHER SERVICE HASTINGS NE
700 PM CDT FRI MAY 26 2017

NOTE: "FAIR" INDICATES FEW OR NO CLOUDS BELOW 12,000 FEET WITH NO
SIGNIFICANT WEATHER AND/OR OBSTRUCTIONS TO VISIBILITY.

...SOUTH CENTRAL NEBRASKA...

CITY           SKY/WX    TMP DP  RH WIND       PRES   REMARKS
GRAND ISLAND   SUNNY     76  47  35 VRB6      29.85S
HASTINGS       SUNNY     78  46  32 NE6       29.85F
KEARNEY        SUNNY     75  46  35 SE8       29.86S
ORD            SUNNY     73  42  32 N5        29.87R
YORK           SUNNY     75  46  35 N5        29.84S
AURORA         SUNNY     78  43  28 CALM      29.84S
LEXINGTON      SUNNY     74  51  44 E5        29.86S
HOLDREGE       SUNNY     76  44  31 SE9       29.84F
HEBRON         SUNNY     80  47  31 E5        29.82S

...NEBRASKA PANHANDLE...

CITY           SKY/WX    TMP DP  RH WIND       PRES   REMARKS
CHADRON        CLOUDY    57  44  62 N9        29.90S
ALLIANCE       RAIN      56  51  84 E12       29.87F
SCOTTSBLUFF    CLOUDY    59  48  67 NE14      29.86F
SIDNEY         LGT RAIN  62  48  60 SE17      29.83F

...WESTERN AND NORTH CENTRAL NEBRASKA...

CITY           SKY/WX    TMP DP  RH WIND       PRES   REMARKS
VALENTINE      CLOUDY    73  38  27 N7        29.88R
AINSWORTH      CLOUDY    68  42  38 CALM      29.90R
ONEILL         MOSUNNY   71  40  32 N5        29.88S
BROKEN BOW     SUNNY     73  45  36 E9        29.87S
IMPERIAL       CLOUDY    67  49  52 S6        29.89R
NORTH PLATTE   SUNNY     71  48  43 E9        29.86S
MCCOOK         MOSUNNY   74  48  39 SE10      29.84F

...EASTERN NEBRASKA...

CITY           SKY/WX    TMP DP  RH WIND       PRES   REMARKS
NORFOLK        SUNNY     74  42  31 N9        29.83S
SO SIOUX CITY  SUNNY     75  48  38 N10       29.82R
TEKAMAH        SUNNY     79  46  31 N8        29.80S
ALBION         SUNNY     75  42  29 N5        29.86R
OMAHA EPPLEY   MOSUNNY   81  49  32 N5        29.80S
OFFUTT AFB     SUNNY     79  47  32 N7        29.80S
MILLARD        SUNNY     81  51  35 NE5       29.81S
LINCOLN        SUNNY     80  50  34 N6        29.82S
NEBRASKA CITY  SUNNY     80  40  23 N9        29.81S
BEATRICE       SUNNY     81  49  33 NE6       29.82S
FALLS CITY     SUNNY     81  58  45 N7        29.78R

...NORTHERN KANSAS...

CITY           SKY/WX    TMP DP  RH WIND       PRES   REMARKS
GOODLAND       SUNNY     71  52  50 SE13      29.84F
HILL CITY      SUNNY     78  52  40 SE10      29.84F
NORTON         CLEAR     73  46  38 E7        29.84S
PHILLIPSBURG   SUNNY     79  48  34 E9        29.83S
SMITH CENTER   SUNNY     77  52  41 E8        29.83F
HAYS           SUNNY     78  57  48 E10       29.83S
RUSSELL        SUNNY     77  58  51 E7        29.81S
CONCORDIA      SUNNY     78  56  46 NE6       29.81F
SALINA         SUNNY     83  59  44 N9        29.79F
TOPEKA         SUNNY     85  63  47 NE3       29.77S



USA.gov is the U.S. government's official web portal to all federal, state and local government web resources and services.